EA4LT-13 Weather Reports


Display with metric or nautical units.
time (UTC)temp
F
wind
direction
speed
MPH
gust
MPH
rain 1hr
in
rain 24hr
in
rain mn
in
humidity
%
barometer
mb
20260831050511 62 315 7.0 11.0 0.00 0.00 0.00 68 1017.1
20260831045013 62 315 7.0 11.0 0.00 0.00 0.00 67 1017.0
20260831043511 62 315 7.0 11.0 0.00 0.00 0.00 66 1017.0
20260831042012 63 292 7.0 11.0 0.00 0.00 0.00 64 1017.0
20260831040511 63 315 6.0 10.0 0.00 0.00 0.00 64 1017.1
20260831035011 63 292 6.0 9.0 0.00 0.00 0.00 63 1017.0
20260831033512 64 315 6.0 9.0 0.00 0.00 0.00 63 1017.1
20260831032011 64 338 6.0 10.0 0.00 0.00 0.00 63 1016.7
20260831030511 64 315 5.0 10.0 0.00 0.00 0.00 62 1016.9
20260831025011 64 315 6.0 9.0 0.00 0.00 0.00 62 1017.2
20260831023511 64 315 5.0 9.0 0.00 0.00 0.00 62 1017.1
20260831022011 64 315 5.0 9.0 0.00 0.00 0.00 62 1017.1
20260831020510 64 292 5.0 8.0 0.00 0.00 0.00 62 1017.1
20260831015010 63 292 4.0 6.0 0.00 0.00 0.00 64 1017.2
20260831013511 63 315 3.0 6.0 0.00 0.00 0.00 64 1017.2
20260831012012 64 292 3.0 6.0 0.00 0.00 0.00 64 1017.1
20260831010511 64 270 4.0 6.0 0.00 0.00 0.00 62 1017.1
20260831005012 64 315 6.0 8.0 0.00 0.00 0.00 62 1017.2
20260831003510 65 315 5.0 8.0 0.00 0.00 0.00 62 1017.3
20260831002011 65 292 4.0 8.0 0.00 0.00 0.00 62 1017.5
20260831000510 65 315 5.0 9.0 0.00 0.00 0.00 62 1017.3
20260830235010 64 315 3.0 6.0 0.00 0.00 0.00 64 1017.3
20260830233511 66 292 3.0 6.0 0.00 0.00 0.00 63 1017.3
20260830232011 66 270 5.0 9.0 0.00 0.00 0.00 63 1017.3
20260830230511 66 315 6.0 9.0 0.00 0.00 0.00 63 1017.2
20260830225010 66 315 6.0 10.0 0.00 0.00 0.00 63 1017.3
20260830223510 67 315 7.0 11.0 0.00 0.00 0.00 63 1017.5
20260830222011 67 315 6.0 11.0 0.00 0.00 0.00 62 1017.1
20260830220510 68 292 8.0 12.0 0.00 0.00 0.00 61 1017.2
20260830215011 69 360 8.0 13.0 0.00 0.00 0.00 60 1017.3
20260830213509 69 292 9.0 12.0 0.00 0.00 0.00 61 1017.3
20260830212009 70 292 6.0 12.0 0.00 0.00 0.00 62 1017.2
20260830210509 71 292 7.0 11.0 0.00 0.00 0.00 61 1017.2
20260830205009 72 315 6.0 12.0 0.00 0.00 0.00 60 1017.1
20260830203510 72 292 7.0 12.0 0.00 0.00 0.00 59 1017.2
20260830202009 73 292 7.0 13.0 0.00 0.00 0.00 57 1016.9
20260830200509 74 315 7.0 10.0 0.00 0.00 0.00 55 1016.8
20260830195010 75 315 3.0 10.0 0.00 0.00 0.00 51 1016.7
20260830193510 76 315 7.0 11.0 0.00 0.00 0.00 50 1016.5
20260830192009 76 292 7.0 11.0 0.00 0.00 0.00 50 1016.5
20260830190509 77 315 6.0 15.0 0.00 0.00 0.00 49 1016.2
20260830185010 78 292 6.0 13.0 0.00 0.00 0.00 46 1016.2
20260830183508 80 292 9.0 12.0 0.00 0.00 0.00 43 1016.2
20260830182009 81 315 6.0 12.0 0.00 0.00 0.00 42 1016.3
20260830180509 81 315 8.0 12.0 0.00 0.00 0.00 41 1016.4
20260830175010 82 292 8.0 15.0 0.00 0.00 0.00 40 1016.4
20260830173508 84 270 5.0 13.0 0.00 0.00 0.00 36 1016.3
20260830172009 83 292 9.0 15.0 0.00 0.00 0.00 36 1016.1
20260830170510 84 315 6.0 13.0 0.00 0.00 0.00 34 1016.1
20260830165009 84 292 6.0 12.0 0.00 0.00 0.00 34 1016.4
20260830163509 85 292 9.0 12.0 0.00 0.00 0.00 34 1016.2
20260830162009 85 315 3.0 11.0 0.00 0.00 0.00 34 1016.1
20260830160509 85 292 5.0 15.0 0.00 0.00 0.00 35 1016.1
20260830155008 86 292 8.0 15.0 0.00 0.00 0.00 35 1016.1
20260830153509 86 338 5.0 15.0 0.00 0.00 0.00 36 1016.1
20260830152008 86 292 7.0 13.0 0.00 0.00 0.00 36 1016.2
20260830150508 85 180 2.0 12.0 0.00 0.00 0.00 38 1016.3
20260830145008 86 315 8.0 13.0 0.00 0.00 0.00 39 1016.4
20260830143507 85 292 7.0 13.0 0.00 0.00 0.00 38 1016.7
20260830142008 84 248 3.0 12.0 0.00 0.00 0.00 39 1016.5
20260830140508 86 270 5.0 10.0 0.00 0.00 0.00 38 1016.8
20260830135008 84 292 3.0 12.0 0.00 0.00 0.00 40 1017.0
20260830133507 84 292 9.0 13.0 0.00 0.00 0.00 39 1017.2
20260830132008 83 270 4.0 11.0 0.00 0.00 0.00 40 1016.9
20260830130508 83 292 4.0 12.0 0.00 0.00 0.00 40 1017.0
20260830125007 84 315 3.0 12.0 0.00 0.00 0.00 39 1017.4
20260830123507 84 292 3.0 13.0 0.00 0.00 0.00 41 1017.4
20260830122008 82 292 8.0 12.0 0.00 0.00 0.00 41 1017.4
20260830120506 81 315 7.0 13.0 0.00 0.00 0.00 43 1017.4
20260830115007 81 292 3.0 12.0 0.00 0.00 0.00 44 1017.8
20260830113507 80 315 7.0 13.0 0.00 0.00 0.00 44 1017.6
20260830112008 80 292 3.0 11.0 0.00 0.00 0.00 48 1017.6
20260830110506 78 292 6.0 12.0 0.00 0.00 0.00 55 1017.8
20260830105006 78 292 6.0 13.0 0.00 0.00 0.00 54 1017.8
20260830103507 78 292 6.0 13.0 0.00 0.00 0.00 55 1017.9
20260830102008 78 292 1.0 8.0 0.00 0.00 0.00 58 1017.9
20260830100506 76 292 6.0 9.0 0.00 0.00 0.00 60 1017.8
20260830095006 75 338 4.0 9.0 0.00 0.00 0.00 61 1017.5
20260830093507 74 292 5.0 10.0 0.00 0.00 0.00 63 1017.8
20260830092007 74 270 2.0 6.0 0.00 0.00 0.00 63 1017.5
20260830090506 73 315 4.0 10.0 0.00 0.00 0.00 65 1017.6
20260830085005 71 315 4.0 8.0 0.00 0.00 0.00 68 1017.3
20260830083506 70 292 3.0 8.0 0.00 0.00 0.00 70 1017.1
20260830082006 70 315 4.0 8.0 0.00 0.00 0.00 69 1016.9
20260830080507 69 270 2.0 3.0 0.00 0.00 0.00 74 1017.2
20260830075006 68 292 1.0 3.0 0.00 0.00 0.00 76 1016.8
20260830073506 67 292 2.0 4.0 0.00 0.00 0.00 76 1017.0
20260830072007 65 292 3.0 6.0 0.00 0.00 0.00 79 1016.9
20260830070505 65 292 2.0 6.0 0.00 0.00 0.00 79 1016.9
20260830065006 64 338 3.0 6.0 0.00 0.00 0.00 80 1016.8
20260830063506 63 292 4.0 6.0 0.00 0.00 0.00 81 1016.6
20260830062006 61 270 2.0 6.0 0.00 0.00 0.00 85 1016.5
20260830060505 63 292 2.0 6.0 0.00 0.00 0.00 79 1016.5
20260830055005 63 292 3.0 6.0 0.00 0.00 0.00 79 1016.3
20260830053505 62 292 3.0 4.0 0.00 0.00 0.00 79 1016.5
20260830052006 62 315 3.0 3.0 0.00 0.00 0.00 79 1016.2